EW5673 Weather Reports


time (UTC)temp
C
wind
direction
speed
KPH
gust
KPH
rain 1hr
cm
rain 24hr
cm
rain mn
cm
humidity
%
barometer
mb
20260507151558 15 13 1.6 6.4 0.00 0.00 0.00 63 1021.3
20260507150058 15 9 0.0 8.0 0.00 0.00 0.00 62 1021.1
20260507144553 15 0 0.0 0.0 0.00 0.00 0.00 60 1021.1
20260507143053 14 0 0.0 4.8 0.00 0.00 0.00 61 1021.1
20260507141548 14 0 0.0 4.8 0.00 0.00 0.00 65 1021.3
20260507140049 14 0 0.0 4.8 0.00 0.00 0.00 64 1021.5
20260507134558 14 0 0.0 6.4 0.00 0.00 0.00 64 1021.7
20260507133056 13 352 1.6 6.4 0.00 0.00 0.00 67 1021.8
20260507131554 13 0 1.6 6.4 0.00 0.00 0.00 67 1021.8
20260507130103 13 0 3.2 9.7 0.00 0.00 0.00 65 1021.7
20260507124618 14 0 0.0 6.4 0.00 0.00 0.00 66 1021.7
20260507123107 14 0 0.0 0.0 0.00 0.00 0.00 63 1021.5
20260507121600 15 0 0.0 6.4 0.00 0.00 0.00 62 1021.4
20260507120055 15 0 0.0 6.4 0.00 0.00 0.00 60 1021.5
20260507114556 15 5 1.6 6.4 0.00 0.00 0.00 61 1021.4
20260507113056 15 0 0.0 8.0 0.00 0.00 0.00 61 1021.5
20260507111556 15 0 0.0 8.0 0.00 0.00 0.00 58 1021.5
20260507110058 16 0 0.0 4.8 0.00 0.00 0.00 54 1021.5
20260507104555 17 0 0.0 8.0 0.00 0.00 0.00 52 1021.6
20260507103051 16 0 0.0 1.6 0.00 0.00 0.00 55 1021.6
20260507101559 15 0 0.0 8.0 0.00 0.00 0.00 59 1021.6
20260507100112 15 0 0.0 8.0 0.00 0.00 0.00 61 1021.5
20260507094553 14 345 0.0 6.4 0.00 0.00 0.00 66 1021.5
20260507093053 14 330 3.2 14.5 0.00 0.00 0.00 66 1021.4
20260507091558 14 0 3.2 9.7 0.00 0.00 0.00 66 1021.3
20260507090055 14 80 1.6 8.0 0.00 0.00 0.00 68 1021.2
20260507084551 13 23 1.6 8.0 0.00 0.00 0.00 68 1021.1
20260507083106 13 346 3.2 8.0 0.00 0.00 0.00 70 1021.1
20260507081558 13 96 1.6 6.4 0.00 0.00 0.00 70 1021.3
20260507080053 12 360 1.6 8.0 0.00 0.00 0.00 73 1021.1
20260507074558 12 9 3.2 8.0 0.00 0.00 0.00 74 1021.0
20260507073058 11 351 3.2 9.7 0.00 0.00 0.00 74 1021.0
20260507071553 11 9 3.2 6.4 0.00 0.00 0.00 79 1021.0
20260507070051 11 360 3.2 8.0 0.00 0.00 0.00 80 1020.9
20260507064553 11 0 3.2 8.0 0.00 0.00 0.00 81 1020.9
20260507063051 10 346 0.0 8.0 0.00 0.00 0.00 85 1020.8
20260507061552 10 355 3.2 8.0 0.00 0.00 0.00 86 1020.8
20260507060057 9 9 1.6 8.0 0.00 0.00 0.00 87 1020.6
20260507054546 9 355 3.2 6.4 0.00 0.00 0.00 87 1020.6
20260507053051 9 5 3.2 8.0 0.00 0.00 0.00 87 1020.5
20260507051549 9 360 1.6 6.4 0.00 0.00 0.00 88 1020.4
20260507050051 8 360 1.6 4.8 0.00 0.00 0.00 88 1020.2
20260507044551 8 360 1.6 3.2 0.00 0.00 0.00 87 1020.1
20260507043055 8 0 0.0 3.2 0.00 0.00 0.00 87 1020.0
20260507041550 9 360 1.6 6.4 0.00 0.00 0.00 86 1019.8
20260507040054 9 352 1.6 6.4 0.00 0.00 0.00 86 1019.6
20260507034553 9 10 1.6 6.4 0.00 0.00 0.00 86 1019.5
20260507033054 9 0 1.6 4.8 0.00 0.00 0.00 86 1019.4
20260507031552 9 5 3.2 6.4 0.00 0.00 0.00 86 1019.3
20260507030052 9 360 3.2 8.0 0.00 0.00 0.00 87 1019.3
20260507024602 9 80 0.0 3.2 0.00 0.00 0.00 87 1019.3
20260507023057 9 0 0.0 0.0 0.00 0.00 0.00 87 1019.2
20260507021556 9 0 0.0 0.0 0.00 0.00 0.00 87 1019.1
20260507020107 9 0 0.0 0.0 0.00 0.00 0.00 87 1018.9
20260507014607 9 0 0.0 0.0 0.00 0.00 0.00 87 1018.9
20260507013055 9 0 0.0 0.0 0.00 0.00 0.00 87 1018.9
20260507011558 9 0 0.0 0.0 0.00 0.00 0.00 86 1018.9
20260507010053 9 0 0.0 0.0 0.00 0.00 0.00 86 1018.9
20260507004557 9 0 0.0 0.0 0.00 0.00 0.00 86 1018.8
20260507003052 10 0 0.0 0.0 0.00 0.00 0.00 85 1018.7
20260507001557 10 0 0.0 0.0 0.00 0.00 0.00 84 1018.6
20260507000054 10 0 0.0 0.0 0.00 0.00 0.00 84 1018.6
20260506234600 10 0 0.0 0.0 0.00 0.00 0.00 83 1018.6
20260506233052 10 0 0.0 0.0 0.00 0.00 0.00 83 1018.5
20260506231556 10 0 0.0 0.0 0.00 0.00 0.00 82 1018.4
20260506230059 10 0 0.0 0.0 0.00 0.00 0.00 82 1018.3
20260506224551 10 0 0.0 0.0 0.00 0.00 0.00 81 1018.3
20260506223056 10 0 0.0 0.0 0.00 0.00 0.00 80 1018.2
20260506221550 10 0 0.0 0.0 0.00 0.00 0.00 79 1018.2
20260506220052 11 0 0.0 0.0 0.00 0.00 0.00 76 1018.1
20260506214552 11 0 0.0 0.0 0.00 0.00 0.00 75 1018.0
20260506213104 11 0 0.0 1.6 0.00 0.00 0.00 74 1017.9
20260506211603 11 0 0.0 3.2 0.00 0.00 0.00 73 1017.9
20260506210055 11 0 0.0 3.2 0.00 0.00 0.00 73 1017.7
20260506204557 11 0 0.0 4.8 0.00 0.00 0.00 73 1017.7
20260506203053 11 0 0.0 4.8 0.00 0.00 0.00 72 1017.6
20260506201558 11 108 0.0 4.8 0.00 0.00 0.00 71 1017.5
20260506200058 11 150 0.0 3.2 0.00 0.00 0.00 71 1017.4
20260506194604 11 78 1.6 4.8 0.00 0.00 0.00 70 1017.0
20260506193053 11 0 0.0 4.8 0.00 0.00 0.00 70 1017.0
20260506191553 11 288 1.6 6.4 0.00 0.00 0.00 70 1016.8
20260506190056 11 30 1.6 6.4 0.00 0.00 0.00 70 1016.8
20260506184607 11 239 1.6 8.0 0.00 0.00 0.00 70 1016.5
20260506183103 11 333 3.2 12.9 0.00 0.00 0.00 69 1016.4
20260506181554 12 24 3.2 14.5 0.00 0.00 0.00 67 1016.2
20260506180055 12 328 6.4 14.5 0.00 0.00 0.00 65 1015.8
20260506174555 12 12 3.2 12.9 0.00 0.00 0.00 67 1015.8
20260506173054 12 5 8.0 17.7 0.00 0.00 0.00 63 1015.7
20260506171555 13 355 4.8 14.5 0.00 0.00 0.00 61 1015.6
20260506170107 13 360 6.4 16.1 0.00 0.00 0.00 63 1015.4
20260506164556 13 26 6.4 16.1 0.00 0.00 0.00 64 1015.2
20260506163106 13 12 6.4 16.1 0.00 0.00 0.00 66 1015.0
20260506161550 13 355 8.0 17.7 0.00 0.00 0.00 65 1014.8
20260506160056 14 5 8.0 17.7 0.00 0.00 0.00 64 1014.9
20260506154555 13 329 6.4 12.9 0.00 0.00 0.00 69 1014.9
20260506153054 13 338 6.4 11.3 0.00 0.00 0.00 69 1015.0